[[{"header":{"parameterUnit":"m.s-1","parameterCategory":1,"la1":30.2991,"la2":30.254,"lo1":-89.0895,"lo2":-89.0444,"dy":0.0017,"dx":0.0017,"nx":28,"ny":28,"refTime":"2025-09-03T21:00:00:Z","depth":0,"parameterNumber":2,"parameterNumberName":"U-component_of_WINDS"},"data":[0,0,0,0,0,0,0,0,0,0,0,0,0,0,0,0,0,0,0,0,0,0,0,0,0,0,0,0,0,0,0,0,0,0,0,0,0,0,0,0,0,0,0,0,0,0,0,0,0,0,0,0,0,0,0,0,0,0,-0.8148,-0.8148,0,-0.813,-0.8129,-0.8129,-0.81,-0.81,-0.8099,-0.8099,-0.808,-0.808,-0.808,0,0,0,0,0,0,0,0,0,0,0,0,0,-0.8159,-0.8159,-0.8148,-0.8148,-0.8147,-0.813,-0.8129,-0.8129,-0.81,-0.81,-0.8099,-0.8099,-0.808,-0.808,-0.808,0,0,0,0,0,0,0,0,0,0,0,0,0,-0.8149,-0.8159,-0.8148,-0.8131,-0.8129,-0.813,-0.8129,-0.8129,-0.8101,-0.81,-0.8099,-0.8098,-0.808,-0.808,-0.808,-0.8095,0,0,-0.808,-0.808,0,0,0,0,0,0,0,0,-0.8149,-0.8148,-0.8134,-0.8132,-0.813,-0.8116,-0.8126,-0.8118,-0.8101,-0.8112,-0.8099,-0.8098,-0.8093,-0.8092,-0.809,-0.8094,-0.8093,-0.808,-0.808,-0.808,-0.808,0,0,0,0,0,0,0,-0.815,-0.8149,-0.8141,-0.8134,-0.8132,-0.8125,-0.8122,-0.8124,-0.8107,-0.8111,-0.8108,-0.8107,-0.8092,-0.809,-0.8089,-0.8093,-0.808,-0.808,-0.808,-0.808,-0.811,-0.8111,0,0,0,0,0,0,-0.8153,-0.815,-0.8141,-0.814,-0.8138,-0.8125,-0.8122,-0.8122,-0.8107,-0.8104,-0.8107,-0.8105,-0.809,-0.8089,-0.8088,-0.8106,-0.808,-0.808,-0.808,-0.8109,-0.811,-0.8111,0,0,0,0,0,0,-0.8154,-0.8153,-0.8142,-0.8144,-0.8142,-0.8126,-0.8125,-0.8122,-0.812,-0.8104,-0.8101,-0.8109,-0.809,-0.8088,-0.8094,-0.8105,-0.808,-0.808,-0.8108,-0.811,-0.8111,-0.8141,0,0,0,0,0,0,-0.8154,-0.8153,-0.8159,-0.8145,-0.8142,-0.8148,-0.8126,-0.8122,-0.812,-0.8117,-0.8105,-0.8102,-0.8089,-0.8094,-0.8094,-0.8104,-0.808,-0.8107,-0.8109,-0.811,-0.8139,-0.8143,-0.8146,0,0,0,0,0,-0.8155,-0.8167,-0.8159,-0.8158,-0.8149,-0.8148,-0.8147,-0.8132,-0.8121,-0.8127,-0.8117,-0.8102,-0.8104,-0.8095,-0.8094,-0.8105,-0.8106,-0.8108,-0.811,-0.8137,-0.8142,-0.8146,0,0,0,0,0,0,-0.8183,-0.8165,-0.8156,-0.8164,-0.8158,-0.8144,-0.815,-0.8138,-0.8134,-0.8132,-0.8114,-0.8111,-0.8119,-0.8112,-0.8103,-0.8119,-0.8103,-0.8105,-0.8123,-0.8128,-0.8132,-0.8134,-0.808,0,0,0,0,0,-0.819,-0.8191,-0.8176,-0.8185,-0.8182,-0.8167,-0.8166,-0.8155,-0.8148,-0.8145,-0.8135,-0.8129,-0.8128,-0.8128,-0.8126,-0.8138,-0.8135,-0.8145,-0.8149,-0.8152,-0.8154,-0.816,-0.8165,-0.8117,-0.8117,-0.8117,0,0,-0.8205,-0.8196,-0.8197,-0.8191,-0.8184,-0.8186,-0.8165,-0.8167,-0.8169,-0.8145,-0.815,-0.8143,-0.8134,-0.8144,-0.8147,-0.8138,-0.8166,-0.8154,-0.8157,-0.8157,-0.8163,-0.8167,-0.8171,-0.8119,-0.8118,-0.8118,0,0,-0.8234,-0.8226,-0.8234,-0.8228,-0.8219,-0.8209,-0.8211,-0.8198,-0.8192,-0.8197,-0.818,-0.8181,-0.818,-0.8175,-0.8172,-0.8199,-0.8186,-0.8199,-0.8219,-0.8226,-0.823,-0.8233,-0.8244,-0.8248,-0.8201,-0.8201,-0.8201,0,-0.8254,-0.8255,-0.8239,-0.8243,-0.8241,-0.822,-0.8228,-0.8223,-0.8214,-0.8213,-0.8203,-0.8202,-0.8194,-0.8202,-0.8209,-0.8207,-0.8209,-0.8201,-0.8231,-0.8234,-0.8237,-0.8246,-0.825,-0.8203,-0.8203,-0.8202,-0.8202,0,-0.8281,-0.8282,-0.8289,-0.8281,-0.828,-0.8286,-0.8271,-0.8271,-0.826,-0.8251,-0.8257,-0.8247,-0.8244,-0.8245,-0.8234,-0.8251,-0.8246,-0.8234,-0.8217,-0.8243,-0.8252,-0.8256,-0.8205,-0.8205,-0.8204,-0.8204,0,0,-0.8327,-0.831,-0.8313,-0.8309,-0.8298,-0.8299,-0.8304,-0.8301,-0.8302,-0.8296,-0.8301,-0.83,-0.8289,-0.8286,-0.8275,-0.828,-0.8304,-0.8267,-0.8267,-0.8275,-0.8323,-0.8333,-0.8338,-0.8295,-0.8296,-0.8296,-0.8324,0,-0.8353,-0.8361,-0.8347,-0.8358,-0.836,-0.834,-0.8345,-0.8339,-0.833,-0.8331,-0.8321,-0.8322,-0.8306,-0.8305,-0.8309,-0.83,-0.8313,-0.8298,-0.8299,-0.8299,-0.8302,-0.8342,-0.8352,-0.8379,-0.8327,-0.8328,-0.8328,0,-0.8386,-0.8382,-0.8394,-0.8382,-0.8382,-0.8387,-0.8383,-0.8383,-0.8376,-0.837,-0.8367,-0.8354,-0.8358,-0.8342,-0.8348,-0.8338,-0.8338,-0.8333,-0.8334,-0.8334,-0.8316,-0.8344,-0.8387,-0.8392,-0.8334,-0.8333,-0.8333,0,-0.8419,-0.8417,-0.8424,-0.8421,-0.8408,-0.8412,-0.8406,-0.8398,-0.8398,-0.8394,-0.8394,-0.8391,-0.8389,-0.8388,-0.8374,-0.8363,-0.8383,-0.8365,-0.8378,-0.8378,-0.8383,-0.8383,-0.8428,-0.8382,-0.8382,-0.8382,-0.8382,0,-0.8451,-0.8459,-0.8439,-0.8443,-0.8451,-0.8435,-0.8444,-0.8437,-0.843,-0.8433,-0.8416,-0.8419,-0.8401,-0.8402,-0.8391,-0.8399,-0.8398,-0.8393,-0.8391,-0.8395,-0.8396,-0.8395,-0.8393,-0.8383,-0.8383,-0.8382,-0.8382,0,-0.849,-0.8476,-0.8483,-0.847,-0.8467,-0.8474,-0.8463,-0.8467,-0.8457,-0.8461,-0.8461,-0.8447,-0.8447,-0.8434,-0.8431,-0.8424,-0.8436,-0.843,-0.8439,-0.8437,-0.8451,-0.8451,-0.8498,-0.8503,-0.8453,-0.8454,-0.8454,0,-0.8511,-0.8517,-0.8505,-0.8505,-0.8501,-0.8502,-0.8501,-0.8485,-0.8485,-0.8478,-0.8483,-0.8482,-0.848,-0.8482,-0.8472,-0.847,-0.8464,-0.848,-0.8464,-0.8468,-0.8465,-0.8465,-0.8466,-0.8484,-0.8485,-0.8485,-0.8486,0,-0.8551,-0.8544,-0.8544,-0.8541,-0.854,-0.8537,-0.8533,-0.8535,-0.8518,-0.8518,-0.8519,-0.8518,-0.8516,-0.8515,-0.8512,-0.8507,-0.8494,-0.8491,-0.8494,-0.8499,-0.8505,-0.8503,-0.845,-0.849,-0.849,-0.849,-0.8489,-0.8489,-0.8582,-0.8587,-0.8579,-0.8579,-0.8575,-0.8571,-0.8574,-0.8565,-0.8565,-0.8563,-0.8553,-0.8556,-0.8549,-0.8543,-0.8539,-0.854,-0.8532,-0.8537,-0.8538,-0.8539,-0.8542,-0.8504,-0.854,-0.8539,-0.8539,-0.8539,-0.8539,0,-0.8622,-0.8616,-0.8616,-0.8612,-0.8612,-0.8599,-0.8594,-0.8595,-0.8597,-0.8592,-0.8591,-0.8592,-0.8592,-0.8581,-0.858,-0.8583,-0.8577,-0.8584,-0.8583,-0.8583,-0.8549,-0.8547,-0.8588,-0.8588,-0.8588,-0.8588,-0.8588,-0.8588,-0.8643,-0.865,-0.8643,-0.8648,-0.8642,-0.8644,-0.8642,-0.8639,-0.8635,-0.8637,-0.8636,-0.8629,-0.8622,-0.862,-0.8619,-0.8616,-0.8617,-0.8625,-0.862,-0.859,-0.8585,-0.858,-0.8578,-0.8625,-0.8625,-0.8654,-0.8654,-0.8654]},{"header":{"parameterUnit":"m.s-1","parameterCategory":1,"la1":30.2991,"la2":30.254,"lo1":-89.0895,"lo2":-89.0444,"dy":0.0017,"dx":0.0017,"nx":28,"ny":28,"refTime":"2025-09-03T21:00:00:Z","depth":0,"parameterNumber":3,"parameterNumberName":"V-component_of_WINDS"},"data":[0,0,0,0,0,0,0,0,0,0,0,0,0,0,0,0,0,0,0,0,0,0,0,0,0,0,0,0,0,0,0,0,0,0,0,0,0,0,0,0,0,0,0,0,0,0,0,0,0,0,0,0,0,0,0,0,0,0,3.8895,3.8894,0,3.8863,3.8863,3.8863,3.8828,3.8827,3.8827,3.8826,3.8792,3.8791,3.8791,0,0,0,0,0,0,0,0,0,0,0,0,0,3.8923,3.8923,3.8895,3.8894,3.8894,3.8863,3.8863,3.8862,3.8828,3.8827,3.8826,3.8826,3.8792,3.8791,3.8791,0,0,0,0,0,0,0,0,0,0,0,0,0,3.8903,3.8923,3.8895,3.8873,3.8871,3.8863,3.8863,3.8862,3.8828,3.8827,3.8826,3.8826,3.8792,3.8791,3.8791,3.8802,0,0,3.8789,3.8788,0,0,0,0,0,0,0,0,3.8904,3.8902,3.8877,3.8874,3.8872,3.8849,3.886,3.8842,3.8828,3.8844,3.8826,3.8825,3.8811,3.8809,3.8805,3.88,3.8799,3.8789,3.8788,3.8788,3.8788,0,0,0,0,0,0,0,3.8906,3.8903,3.8882,3.8876,3.8873,3.8864,3.8861,3.8857,3.8832,3.8843,3.884,3.8837,3.881,3.8805,3.8804,3.8798,3.8789,3.8788,3.8788,3.8787,3.88,3.8801,0,0,0,0,0,0,3.8911,3.8905,3.8883,3.8881,3.8887,3.8864,3.886,3.8857,3.8832,3.8828,3.8838,3.8835,3.8807,3.8804,3.8802,3.8812,3.8788,3.8787,3.8787,3.88,3.8801,3.8801,0,0,0,0,0,0,3.8911,3.8909,3.8884,3.8892,3.8888,3.8865,3.8861,3.8857,3.8852,3.8828,3.8824,3.8838,3.8806,3.8803,3.8802,3.8811,3.8787,3.8787,3.8799,3.88,3.8801,3.8834,0,0,0,0,0,0,3.8912,3.891,3.8914,3.8893,3.8888,3.8886,3.8862,3.8857,3.8851,3.8848,3.8827,3.8823,3.8805,3.8803,3.8801,3.8809,3.8786,3.8798,3.8799,3.8801,3.8832,3.8836,3.884,0,0,0,0,0,3.8913,3.8924,3.8914,3.8912,3.8893,3.8886,3.8884,3.8864,3.8852,3.8856,3.8841,3.8824,3.8811,3.8804,3.8801,3.8809,3.8797,3.8799,3.88,3.883,3.8835,3.8839,0,0,0,0,0,0,3.8946,3.8921,3.891,3.8914,3.8903,3.888,3.8884,3.887,3.8861,3.8858,3.8833,3.8829,3.8831,3.882,3.8812,3.8818,3.8801,3.8803,3.8825,3.8829,3.8833,3.8835,3.8785,0,0,0,0,0,3.8954,3.8951,3.8929,3.8935,3.893,3.8908,3.8905,3.889,3.8877,3.8872,3.8857,3.8844,3.8837,3.8833,3.8825,3.8831,3.8825,3.8835,3.8839,3.8842,3.8843,3.8844,3.8848,3.8807,3.8807,3.8807,0,0,3.897,3.8956,3.8955,3.8941,3.8931,3.8927,3.8904,3.8902,3.8899,3.8871,3.8869,3.8858,3.8842,3.8844,3.8844,3.8835,3.8853,3.8844,3.8847,3.8846,3.8846,3.885,3.8854,3.8808,3.8808,3.8808,0,0,3.8997,3.8986,3.899,3.898,3.8965,3.895,3.8951,3.8931,3.8923,3.8921,3.89,3.8896,3.8884,3.8874,3.8867,3.8891,3.8874,3.8889,3.8908,3.8909,3.8913,3.8915,3.8923,3.8926,3.889,3.889,3.889,0,3.9018,3.9013,3.8993,3.8992,3.8986,3.8962,3.8965,3.8956,3.8939,3.8935,3.8925,3.891,3.8898,3.8897,3.8903,3.8899,3.8898,3.889,3.8914,3.8917,3.8919,3.8925,3.8928,3.8892,3.8892,3.8892,3.8891,0,3.9039,3.9036,3.9041,3.9025,3.902,3.9021,3.9,3.8997,3.8984,3.8971,3.8968,3.8953,3.8941,3.894,3.8927,3.8937,3.8932,3.8919,3.8901,3.8925,3.893,3.8933,3.8895,3.8894,3.8893,3.8893,0,0,3.9084,3.9059,3.9061,3.9053,3.9035,3.9032,3.9031,3.9021,3.9018,3.9007,3.9006,3.8997,3.8985,3.8977,3.8962,3.8964,3.8982,3.895,3.8949,3.8955,3.8991,3.9,3.9003,3.8972,3.8972,3.8972,3.8992,0,3.9107,3.9105,3.9088,3.9091,3.9087,3.9065,3.9064,3.9052,3.904,3.9035,3.9021,3.9014,3.8999,3.8994,3.8995,3.898,3.8988,3.8978,3.8968,3.8968,3.8971,3.9006,3.9016,3.9035,3.8994,3.8994,3.8994,0,3.9133,3.9124,3.9127,3.9109,3.9106,3.9106,3.9095,3.9091,3.9077,3.9068,3.9059,3.9043,3.9041,3.9025,3.9021,3.9014,3.9009,3.9001,3.9002,3.8999,3.8982,3.9003,3.904,3.9043,3.8998,3.8998,3.8997,0,3.9164,3.9153,3.9153,3.9148,3.9127,3.9127,3.9118,3.9104,3.9098,3.9088,3.9084,3.9074,3.9068,3.906,3.9041,3.9032,3.9039,3.9022,3.903,3.903,3.9031,3.9031,3.9067,3.903,3.903,3.903,3.903,0,3.919,3.9192,3.9167,3.9167,3.9168,3.9148,3.915,3.9139,3.9127,3.9123,3.9104,3.9101,3.9077,3.9071,3.9056,3.9054,3.9052,3.9043,3.9039,3.9044,3.9045,3.9039,3.9037,3.9031,3.9031,3.9031,3.9031,0,3.9224,3.9208,3.9206,3.9186,3.9182,3.9184,3.9166,3.9165,3.9152,3.9148,3.9146,3.9125,3.9117,3.9098,3.9085,3.9075,3.9076,3.9069,3.9081,3.9078,3.9086,3.9085,3.9119,3.9121,3.9085,3.9085,3.9086,0,3.9241,3.9242,3.9223,3.922,3.9212,3.9207,3.9202,3.9182,3.9177,3.9162,3.9162,3.9153,3.9145,3.9133,3.9116,3.9106,3.9098,3.911,3.9096,3.9101,3.9096,3.9096,3.9095,3.9113,3.9113,3.9114,3.9114,0,3.9273,3.9264,3.9258,3.9249,3.9243,3.9235,3.9225,3.9223,3.9201,3.9197,3.9189,3.9182,3.9169,3.916,3.9147,3.9137,3.9121,3.9119,3.912,3.9124,3.913,3.9126,3.9088,3.9118,3.9117,3.9117,3.9117,3.9117,3.9298,3.9298,3.9284,3.9277,3.9268,3.926,3.9258,3.9245,3.9238,3.9226,3.9215,3.9208,3.9194,3.9176,3.9166,3.916,3.9152,3.9154,3.9154,3.9154,3.9156,3.9133,3.9158,3.9158,3.9158,3.9157,3.9157,0,3.9327,3.9317,3.9312,3.9299,3.9294,3.9281,3.927,3.9266,3.926,3.9249,3.9241,3.9232,3.9223,3.9206,3.9195,3.9193,3.9186,3.9191,3.919,3.9187,3.9165,3.9164,3.9197,3.9197,3.9197,3.9197,3.9197,3.9197,3.9341,3.934,3.9331,3.9325,3.9315,3.9309,3.9303,3.9295,3.9286,3.9277,3.9269,3.9259,3.9244,3.9232,3.9223,3.9218,3.9214,3.9222,3.9214,3.9193,3.9189,3.9186,3.9185,3.9222,3.9222,3.9237,3.9238,3.9238]}]]